Location: Del Amo
(33.8464°N, 118.2104°W)
Time: 21:02:56
(UTC+00:00)

Courier 1B Rocket - Pass Details

Date: 16 September 2024
Orbit: 920 x 1201 km, 28.3° (Epoch: 13 October)

Event Time Altitude Azimuth Distance (km) Brightness Sun altitude
Rises 02:51:19 0° 269° (W) 3,816 9.9 -11.7°
Reaches altitude 10° 02:54:04 10° 263° (W) 2,903 8.7 -12.3°
Maximum altitude 03:00:52 47° 192° (SSW) 1,459 5.9 -13.7°
Enters shadow 03:06:29 17° 126° (SE) 2,574 6.6 -14.8°
